Probability
0 0 0 0 0 0 3 3 0 0 0 0 0 3 0 3 0 3 16 55 61 55 45 45 45 42 45 45 55 61 55 61 61 61 58 52 58 68 77 84 81 77 77
0 0 0 0 0 0 0 0 0 0 0 0 0 0 0 0 0 3 13 32 61 65 58 55 55 52 42 45 55 68 61 65 61 61 65 58 52 61 74 81 84 74 71
0 0 0 0 0 0 0 0 0 0 0 0 0 0 0 0 0 0 13 19 23 52 61 58 52 58 58 52 52 55 61 58 61 58 65 65 61 58 61 77 81 81 77
0 0 0 0 0 0 0 0 0 0 0 0 0 0 0 3 0 3 3 6 13 19 42 55 65 65 58 61 58 55 61 61 58 61 65 61 58 48 58 74 77 81 81
0 0 0 0 0 0 0 0 0 0 0 0 0 0 0 3 0 0 0 0 6 6 13 29 55 68 71 65 61 58 58 61 58 65 65 65 61 61 68 71 74 77 87
0 0 0 0 0 0 0 0 0 0 0 0 0 0 0 0 0 0 3 0 6 3 19 13 19 16 61 68 68 61 61 55 61 65 71 61 65 71 71 74 71 71 74
0 0 0 0 0 0 0 0 0 0 0 0 0 0 0 0 0 6 3 6 3 3 16 13 10 0 13 39 48 61 65 61 58 55 61 65 65 71 74 77 74 68 68
0 0 0 0 0 0 0 0 0 0 0 0 0 0 0 0 0 0 0 3 3 3 6 6 10 6 6 6 6 48 58 58 65 55 58 68 71 71 74 81 77 71 74
0 0 0 0 0 0 0 0 0 0 0 0 0 0 0 0 0 0 0 0 3 6 3 3 0 10 10 10 6 6 26 39 58 58 61 61 61 71 68 71 81 81 81
0 0 0 0 0 0 0 0 0 0 0 0 0 0 0 0 0 0 0 0 0 6 3 3 0 10 6 6 3 3 10 10 42 48 55 58 52 65 61 61 77 81 81
0 0 0 0 0 0 0 0 0 0 0 0 0 0 0 0 0 0 0 0 0 0 0 0 6 10 10 6 6 3 0 3 19 45 52 48 42 45 45 61 68 71 71
0 0 0 0 0 0 0 0 0 0 0 0 0 0 0 0 0 0 0 0 0 0 0 3 6 3 3 6 6 0 0 0 0 23 35 45 39 39 45 39 52 58 61
0 0 0 0 0 0 0 0 0 0 0 0 0 0 0 0 0 0 0 0 0 0 0 3 6 3 3 3 0 0 0 0 0 0 6 23 26 42 42 42 32 45 55
0 0 0 0 0 0 0 0 0 0 0 0 0 0 0 0 0 0 0 0 0 0 0 0 3 3 3 3 0 0 0 0 0 0 0 6 10 23 29 45 45 48 48
0 0 0 0 0 0 0 0 0 0 0 0 0 0 0 0 0 0 0 0 0 0 0 0 0 0 3 3 0 0 0 0 0 0 0 0 0 3 16 19 23 23 39
0 0 0 0 0 0 0 0 0 0 0 0 0 0 0 0 0 0 0 0 0 0 0 0 0 0 3 3 0 3 0 0 0 0 0 0 0 0 0 3 3 3 10
0 0 0 0 0 0 0 0 0 0 0 3 0 0 0 0 0 0 0 0 0 0 0 0 0 0 0 0 0 0 0 0 0 0 0 0 0 0 0 0 0 0 0
0 0 0 0 0 0 0 0 0 0 0 0 0 0 0 0 0 0 0 0 0 0 0 0 0 0 0 0 0 0 0 0 0 0 0 0 0 0 0 0 0 0 0
0 0 0 0 0 0 0 0 0 0 0 0 0 0 0 0 0 0 0 0 0 0 0 0 0 0 0 0 0 0 0 0 0 0 0 0 0 0 0 0 0 0 0
0 0 0 0 0 0 0 0 0 0 0 0 0 0 0 0 0 0 0 0 0 0 0 0 0 0 0 0 0 0 0 0 0 0 0 0 0 0 0 0 0 0 0
0 0 0 0 0 0 0 0 0 0 0 0 0 0 0 0 0 0 0 0 0 0 0 0 0 0 0 0 0 0 0 0 0 0 0 0 0 0 0 0 0 0 0
0 0 0 0 0 0 0 0 0 0 0 0 0 0 0 0 0 0 0 0 0 0 0 0 0 0 0 0 0 0 0 0 0 0 0 0 0 0 0 0 0 0 0
0 0 0 0 0 0 0 0 0 0 0 0 0 0 0 0 0 0 0 0 0 0 0 0 0 0 0 0 0 0 0 0 0 0 0 0 0 0 0 0 0 0 0
0 0 0 0 0 0 0 0 0 0 0 0 0 0 0 0 0 0 0 0 0 0 0 0 0 0 0 0 0 0 0 0 0 0 0 0 0 0 0 0 0 0 0
0 0 0 0 0 0 0 0 0 0 0 0 0 0 0 0 0 0 0 0 0 0 0 0 0 0 0 0 0 0 0 0 0 0 0 0 0 0 0 0 0 0 0
0 0 0 0 0 0 0 0 0 0 0 0 0 0 0 0 0 0 0 0 0 0 0 0 0 0 0 0 0 0 0 0 0 0 0 0 0 0 0 0 0 0 0
Height
5844 5842 5839 5837 5834 5832 5830 5829 5827 5826 5826 5825 5825 5826 5827 5828 5830 5832 5834 5836 5839 5841 5844 5847 5850 5852 5855 5857 5858 5859 5861 5864 5867 5870 5872 5874 5876 5879 5883 5886 5889 5892 5895
5842 5839 5837 5834 5831 5829 5826 5825 5823 5822 5821 5820 5821 5821 5822 5823 5825 5827 5830 5832 5835 5838 5841 5844 5847 5849 5852 5855 5857 5859 5861 5864 5867 5869 5871 5874 5876 5879 5882 5886 5889 5892 5895
5840 5837 5834 5831 5828 5825 5823 5821 5819 5818 5816 5816 5816 5816 5817 5818 5820 5822 5824 5828 5831 5834 5837 5840 5843 5847 5850 5853 5855 5858 5861 5863 5866 5868 5871 5873 5876 5879 5882 5885 5888 5891 5894
5838 5835 5832 5829 5825 5822 5819 5817 5815 5814 5812 5811 5811 5811 5812 5814 5816 5818 5820 5823 5826 5830 5833 5837 5840 5843 5847 5850 5853 5856 5859 5862 5864 5867 5870 5872 5875 5878 5881 5884 5887 5890 5893
5836 5833 5830 5826 5823 5820 5817 5814 5812 5810 5808 5807 5807 5807 5807 5809 5811 5813 5816 5819 5822 5826 5829 5833 5837 5840 5844 5847 5851 5854 5857 5860 5863 5866 5869 5871 5874 5877 5880 5883 5886 5889 5891
5834 5831 5828 5825 5821 5818 5814 5811 5809 5807 5805 5803 5803 5803 5803 5805 5806 5808 5811 5814 5817 5821 5825 5829 5833 5837 5840 5844 5847 5851 5854 5858 5861 5864 5867 5870 5873 5876 5879 5882 5885 5887 5890
5832 5829 5826 5823 5819 5816 5812 5809 5806 5804 5802 5800 5799 5799 5800 5801 5802 5804 5807 5810 5813 5816 5821 5825 5829 5833 5837 5841 5844 5848 5851 5855 5858 5861 5865 5868 5871 5874 5877 5880 5883 5885 5888
5830 5827 5824 5821 5817 5814 5810 5807 5804 5801 5799 5797 5796 5796 5796 5798 5799 5800 5803 5805 5808 5811 5816 5820 5824 5829 5833 5838 5841 5845 5848 5852 5855 5859 5862 5866 5869 5872 5875 5878 5881 5883 5886
5828 5825 5822 5819 5815 5812 5808 5805 5802 5799 5796 5794 5793 5793 5793 5794 5795 5797 5799 5801 5804 5807 5811 5816 5820 5825 5829 5834 5838 5841 5845 5849 5852 5856 5859 5862 5866 5869 5872 5875 5878 5881 5884
5826 5823 5820 5817 5814 5810 5807 5803 5800 5797 5794 5792 5791 5790 5790 5790 5791 5793 5795 5797 5800 5803 5807 5811 5816 5820 5825 5829 5833 5837 5841 5845 5849 5852 5856 5859 5863 5866 5869 5872 5875 5878 5881
5824 5821 5818 5815 5812 5808 5805 5801 5798 5795 5792 5790 5789 5787 5787 5787 5788 5790 5791 5794 5797 5799 5803 5807 5811 5815 5820 5824 5829 5833 5837 5841 5845 5849 5852 5856 5859 5863 5866 5869 5872 5875 5877
5822 5819 5816 5813 5810 5807 5803 5800 5797 5794 5791 5788 5787 5785 5785 5785 5785 5786 5788 5790 5793 5796 5799 5803 5807 5811 5815 5820 5824 5828 5833 5837 5841 5845 5848 5852 5855 5859 5862 5865 5868 5871 5873
5820 5817 5814 5811 5808 5805 5802 5798 5795 5792 5790 5787 5785 5784 5783 5783 5783 5784 5785 5787 5790 5793 5796 5799 5803 5807 5811 5815 5819 5824 5828 5832 5836 5840 5844 5847 5851 5854 5857 5861 5864 5866 5869
5817 5814 5811 5808 5805 5802 5800 5797 5794 5791 5788 5786 5784 5782 5781 5781 5781 5782 5783 5784 5787 5789 5792 5795 5799 5802 5806 5810 5814 5819 5823 5827 5831 5835 5838 5842 5846 5849 5853 5856 5859 5862 5864
5814 5811 5808 5806 5803 5800 5797 5795 5792 5789 5787 5785 5783 5781 5780 5779 5779 5779 5780 5781 5784 5786 5789 5791 5794 5798 5802 5806 5810 5814 5817 5821 5825 5829 5833 5837 5840 5844 5847 5850 5853 5856 5859
5810 5808 5805 5802 5800 5797 5795 5792 5790 5788 5785 5783 5781 5780 5779 5778 5777 5777 5777 5778 5780 5782 5784 5787 5790 5793 5797 5801 5805 5808 5812 5816 5820 5824 5827 5831 5835 5838 5842 5845 5848 5851 5853
5806 5804 5801 5799 5796 5794 5792 5790 5788 5785 5783 5781 5780 5778 5777 5776 5775 5775 5775 5776 5777 5779 5781 5783 5785 5789 5792 5796 5800 5803 5807 5811 5814 5818 5822 5825 5829 5832 5835 5839 5842 5845 5847
5802 5799 5797 5794 5792 5790 5788 5786 5784 5783 5781 5779 5777 5776 5775 5774 5773 5773 5773 5773 5774 5776 5777 5779 5782 5784 5788 5791 5794 5798 5801 5805 5808 5812 5815 5819 5822 5826 5829 5832 5835 5838 5841
5796 5794 5792 5790 5788 5785 5784 5782 5780 5779 5777 5776 5774 5773 5772 5771 5770 5770 5770 5770 5771 5772 5773 5775 5778 5780 5783 5786 5789 5792 5796 5799 5802 5805 5809 5812 5816 5819 5822 5826 5828 5831 5834
5790 5788 5786 5784 5782 5780 5779 5777 5776 5775 5773 5772 5770 5769 5768 5767 5767 5766 5766 5766 5767 5768 5769 5771 5773 5776 5778 5781 5784 5787 5790 5793 5797 5800 5803 5806 5809 5813 5816 5819 5822 5824 5827
5783 5781 5779 5777 5775 5774 5773 5771 5770 5769 5768 5767 5766 5765 5764 5763 5762 5762 5762 5762 5763 5764 5765 5767 5769 5771 5773 5776 5779 5782 5785 5788 5791 5794 5797 5800 5803 5806 5809 5812 5814 5817 5819
5775 5773 5771 5769 5768 5766 5765 5764 5763 5762 5761 5761 5760 5759 5759 5758 5757 5757 5757 5757 5758 5759 5760 5762 5764 5766 5768 5771 5773 5776 5779 5782 5785 5788 5790 5793 5796 5799 5802 5805 5807 5810 5812
5766 5764 5762 5760 5759 5757 5756 5755 5754 5754 5753 5753 5753 5753 5753 5752 5752 5752 5752 5752 5753 5754 5755 5757 5758 5760 5763 5765 5768 5770 5773 5776 5779 5781 5784 5787 5790 5792 5795 5797 5800 5802 5804
5756 5753 5751 5749 5748 5748 5746 5746 5745 5744 5744 5744 5744 5745 5745 5745 5745 5745 5745 5746 5747 5748 5749 5750 5752 5754 5757 5759 5761 5764 5766 5769 5772 5774 5777 5780 5782 5785 5787 5790 5792 5794 5797
5744 5742 5740 5738 5737 5736 5735 5734 5733 5733 5734 5734 5735 5735 5736 5737 5737 5737 5738 5739 5740 5741 5742 5744 5746 5748 5750 5753 5755 5758 5760 5762 5765 5767 5770 5773 5775 5777 5780 5782 5784 5786 5789
5733 5730 5727 5725 5724 5724 5723 5722 5721 5721 5722 5723 5724 5725 5726 5727 5728 5728 5730 5731 5733 5734 5736 5738 5740 5742 5744 5746 5748 5751 5753 5756 5758 5761 5763 5765 5768 5770 5773 5775 5777 5779 5781
Wind_Speed
18 19 19 19 19 19 19 18 18 17 17 17 18 19 19 20 20 20 20 21 21 21 21 20 19 18 16 15 15 14 14 15 15 14 14 15 16 17 18 17 18 16 16
18 19 20 20 20 20 19 18 18 18 18 18 18 18 19 20 20 20 21 21 21 22 22 21 20 19 18 17 16 15 15 16 16 16 16 16 17 17 17 17 17 16 16
19 19 20 20 20 20 19 18 18 18 18 18 18 17 18 19 20 20 21 22 22 23 23 22 21 21 20 20 18 16 16 16 17 17 16 16 17 17 17 17 16 15 15
19 20 20 20 20 20 19 18 17 17 17 16 17 17 17 19 19 21 22 22 23 23 24 23 22 21 22 22 21 19 17 18 18 17 17 16 15 16 16 16 16 16 15
20 20 20 20 20 20 19 18 17 17 16 15 15 15 16 17 19 20 21 23 24 24 24 24 23 22 22 22 22 21 19 19 19 18 18 17 16 16 16 16 16 15 15
20 20 20 20 20 20 19 18 18 17 16 15 14 14 14 15 17 19 20 22 24 24 24 24 24 24 23 23 23 22 21 21 21 20 19 18 18 17 16 16 16 15 15
20 20 20 21 20 20 19 19 18 17 16 15 14 14 14 14 15 17 19 21 24 25 25 25 25 24 23 23 23 23 23 22 22 21 20 19 19 18 17 17 17 16 16
20 20 21 21 21 20 20 19 18 17 16 15 14 13 13 14 15 16 18 20 23 24 26 26 26 26 25 24 24 23 23 23 23 22 21 21 20 19 18 17 17 17 17
20 20 21 21 21 20 20 19 18 17 16 14 13 12 12 13 14 15 16 19 21 22 24 26 26 27 26 26 26 24 24 24 24 23 23 22 21 20 19 18 18 18 17
20 20 21 21 21 21 20 19 18 17 16 14 13 12 12 12 13 14 16 18 20 22 24 25 26 26 27 28 26 26 26 25 25 24 24 23 23 22 21 20 19 19 18
20 20 20 21 21 21 20 20 19 18 16 14 13 12 11 11 12 13 15 17 19 22 23 24 25 27 27 27 27 27 27 26 25 25 25 24 24 23 23 21 20 20 19
20 20 20 20 20 20 20 20 18 17 15 13 12 12 11 11 11 12 14 16 18 20 22 23 25 26 27 27 28 28 28 27 27 26 26 26 25 25 24 23 22 21 21
20 20 20 20 20 20 20 19 18 17 15 13 12 11 10 10 10 12 14 16 17 19 21 22 24 26 26 27 27 28 28 27 27 28 28 27 27 26 25 24 23 23 22
20 20 20 20 20 20 19 19 18 17 15 13 12 11 10 10 10 11 13 16 18 19 20 21 24 25 26 27 27 28 28 28 27 28 28 28 27 27 27 25 24 24 24
21 21 21 21 20 20 19 18 18 17 15 13 12 11 11 10 10 11 12 15 16 18 20 22 23 25 26 26 27 28 28 28 28 28 28 29 29 28 27 27 25 25 25
22 21 22 21 21 20 19 18 18 17 16 14 13 12 11 10 10 10 11 13 15 17 19 21 22 23 25 25 26 26 28 28 28 28 27 28 29 29 28 28 28 27 26
23 23 22 22 21 20 19 19 18 17 16 15 13 12 11 11 10 10 10 12 14 15 18 20 21 22 24 24 24 25 27 28 28 29 28 29 29 29 29 29 29 28 27
24 24 23 22 22 21 20 19 19 18 16 15 14 13 12 12 11 11 11 12 13 14 16 18 19 20 22 23 24 25 25 26 28 29 29 29 29 30 29 29 29 29 29
24 24 24 23 23 22 21 20 19 18 17 16 15 15 14 13 13 13 13 14 15 15 16 18 19 20 22 23 24 25 25 25 27 27 28 29 29 30 30 30 30 29 30
25 25 25 24 24 23 22 22 20 20 19 18 16 16 15 15 14 14 15 15 15 16 17 18 19 20 21 22 23 24 25 25 25 27 27 28 29 30 30 31 31 30 30
27 27 26 26 25 24 24 23 22 21 21 19 18 17 16 16 15 15 16 16 17 17 18 18 19 21 22 23 23 24 25 26 26 27 27 28 28 29 30 30 30 30 30
29 29 28 28 27 26 25 25 25 24 22 21 20 19 18 17 17 17 16 16 17 18 18 19 20 20 22 23 24 25 24 25 27 27 27 27 28 28 29 30 30 30 30
32 31 31 30 30 29 27 27 27 27 25 24 22 21 20 20 19 18 18 18 18 19 19 20 21 21 22 22 24 24 25 25 26 28 28 27 27 27 28 28 28 29 30
34 33 33 32 32 31 30 29 29 29 28 27 25 24 23 22 22 20 20 20 20 20 20 21 21 22 22 22 23 24 25 25 25 26 26 26 26 27 27 28 29 29 29
36 36 35 35 34 34 33 32 32 31 30 29 28 27 26 25 24 23 22 21 21 21 21 21 21 22 22 22 22 23 24 25 25 25 26 26 26 26 27 27 28 28 28
39 39 38 38 37 36 35 35 34 34 33 32 31 30 29 27 26 25 24 23 22 22 22 22 22 23 23 23 23 23 24 25 25 25 25 25 26 26 26 26 26 26 26
Wind_Direction
330 327 326 324 320 315 311 307 302 296 291 285 276 268 261 254 250 246 240 236 233 230 229 228 227 227 225 219 216 209 201 198 195 194 189 184 181 179 180 183 185 186 188
331 330 328 326 322 319 315 310 304 299 294 287 280 269 261 253 248 244 241 237 234 230 227 226 225 223 221 217 214 210 207 200 195 194 190 187 185 182 182 183 186 188 190
334 333 332 329 326 323 320 314 308 303 297 290 282 272 261 253 247 243 240 236 234 230 226 225 225 222 220 217 213 210 207 204 199 196 194 190 188 187 187 188 190 190 191
337 336 335 333 330 328 325 321 315 308 301 293 284 276 263 253 248 243 239 235 231 229 227 224 224 221 220 218 214 212 210 207 204 201 199 195 194 193 193 195 195 194 195
337 337 337 336 334 332 329 325 320 314 305 297 287 279 267 254 248 243 239 234 229 227 227 225 223 222 219 217 214 213 213 211 209 205 202 201 199 197 197 198 198 199 200
338 338 338 338 337 335 331 327 324 319 311 301 291 281 270 258 251 245 240 234 229 226 224 224 224 222 218 217 215 215 215 214 212 210 207 205 202 202 203 202 203 205 206
337 338 338 339 339 337 334 330 326 323 316 305 295 284 272 260 252 246 241 234 229 226 222 222 223 221 218 218 218 218 217 215 214 212 211 208 206 207 207 208 210 212 212
336 337 338 338 338 338 337 334 329 325 318 309 297 287 274 261 253 247 241 234 229 226 223 220 221 220 219 219 219 218 217 216 216 215 214 211 210 211 212 212 214 215 216
336 336 337 338 338 338 338 336 332 328 322 313 303 291 278 263 255 249 242 234 230 226 221 221 221 221 219 219 220 218 218 218 218 217 217 215 214 215 216 217 218 219 220
336 336 337 338 338 338 338 336 334 330 325 317 307 295 284 272 259 249 241 234 228 224 223 222 221 220 219 219 220 220 219 219 221 220 218 217 218 219 220 220 221 222 224
335 335 336 337 338 338 338 338 336 334 328 321 311 299 288 277 262 251 240 235 229 225 225 225 222 222 221 221 221 221 220 221 222 220 219 219 220 222 221 223 225 225 226
333 334 335 335 336 337 338 339 337 336 332 326 318 308 295 283 266 251 240 235 231 229 227 226 223 222 222 222 222 223 222 222 223 223 223 222 222 224 224 226 228 228 229
331 332 333 334 334 335 336 338 338 337 335 330 322 314 302 287 270 255 244 238 233 230 229 227 225 223 222 223 224 225 224 223 224 226 226 226 226 227 227 227 229 230 232
331 332 332 332 333 333 334 336 337 337 335 332 323 318 309 292 275 260 247 241 235 232 230 228 227 226 224 224 224 226 225 225 226 226 228 228 228 229 229 230 231 232 234
327 328 329 330 331 331 331 333 334 334 333 331 325 318 311 297 283 267 254 244 237 234 231 229 228 228 228 227 226 227 227 227 227 227 230 230 230 230 231 232 233 234 236
323 323 325 325 326 328 328 328 330 329 327 326 325 318 309 299 287 270 256 248 242 236 232 231 229 229 228 228 227 228 229 228 229 229 232 232 231 232 233 234 235 236 238
320 320 321 322 322 322 322 323 324 324 323 319 318 315 307 298 288 274 263 255 245 240 235 232 231 231 229 228 229 230 231 230 231 231 233 233 233 234 234 236 236 238 240
317 318 318 318 318 317 317 318 319 320 319 315 309 306 301 294 285 276 266 257 250 246 240 236 233 231 230 230 231 232 233 234 234 234 234 234 234 234 236 237 238 240 243
313 314 316 314 314 314 313 313 314 313 314 311 306 301 295 288 281 275 268 259 254 249 243 237 235 232 232 232 230 231 234 237 236 234 234 234 235 236 237 238 240 243 244
309 309 310 311 309 309 308 307 307 307 306 306 303 298 292 287 282 275 269 262 256 251 245 239 236 235 235 233 232 233 234 236 236 235 236 235 236 237 239 240 241 243 244
307 305 305 305 304 302 303 301 300 300 299 298 297 292 289 284 281 275 269 263 256 253 247 241 239 238 236 234 234 235 235 237 236 235 237 238 238 239 240 241 242 244 246
304 302 301 301 300 297 295 295 294 293 292 291 289 285 282 280 277 273 268 262 257 252 248 244 241 240 238 237 237 236 237 237 235 235 237 239 240 241 242 243 245 246 248
302 300 298 297 296 295 292 290 287 286 285 285 284 280 276 273 271 268 265 261 256 251 249 246 242 240 240 238 238 237 237 236 236 237 238 239 240 240 242 245 245 246 247
301 300 297 295 294 292 289 286 284 282 280 278 278 276 273 269 266 264 260 258 256 251 248 245 242 239 237 238 238 238 238 238 237 238 239 240 241 241 242 244 245 247 249
300 298 297 294 291 289 286 283 281 279 277 275 273 271 269 265 262 260 257 255 254 251 247 245 244 241 239 236 237 238 240 240 240 240 241 241 242 244 244 245 246 247 250
300 298 295 293 290 286 284 281 278 276 273 271 269 268 265 263 260 257 255 253 251 248 245 244 243 241 240 238 237 239 240 240 241 241 241 240 241 243 244 245 246 247 249